N1OF Weather Reports


time (UTC)temp
F
wind
direction
speed
knots
gust
knots
rain 1hr
in
rain 24hr
in
rain mn
in
humidity
%
barometer
mb
20260507003618 52 204 0.0 0.9 0.00 0.28 0.28 53 1013.9
20260507003113 52 184 0.9 1.7 0.00 0.28 0.28 53 1013.9
20260507002610 52 199 0.9 1.7 0.00 0.28 0.28 52 1013.9
20260507002105 53 272 0.9 0.9 0.00 0.28 0.28 50 1013.7
20260507001602 53 278 1.7 1.7 0.00 0.28 0.28 50 1013.8
20260507001100 53 278 0.0 0.9 0.00 0.28 0.28 49 1013.7
20260507000556 53 313 0.9 2.6 0.00 0.28 0.28 49 1013.6
20260507000051 53 215 0.9 2.6 0.00 0.28 0.28 49 1013.6
20260506235549 53 263 1.7 3.5 0.00 0.28 0.28 48 1013.6
20260506235044 53 293 2.6 3.5 0.00 0.28 0.28 48 1013.7
20260506234542 54 313 2.6 3.5 0.00 0.28 0.28 47 1013.7
20260506234039 54 174 1.7 1.7 0.00 0.28 0.28 47 1013.7
20260506233536 53 343 0.9 0.9 0.00 0.28 0.28 48 1013.7
20260506233033 53 278 0.9 3.5 0.00 0.28 0.28 46 1013.6
20260506232529 53 298 1.7 5.2 0.00 0.28 0.28 46 1014.0
20260506232024 53 302 1.7 1.7 0.00 0.28 0.28 47 1014.1
20260506231522 54 314 1.7 7.8 0.00 0.28 0.28 46 1013.9
20260506231020 54 298 2.6 3.5 0.00 0.28 0.28 45 1013.9
20260506230516 54 301 4.3 6.1 0.00 0.28 0.28 45 1013.8
20260506230014 54 291 3.5 6.1 0.00 0.28 0.28 44 1013.9
20260506225510 54 200 1.7 2.6 0.00 0.28 0.28 45 1014.0
20260506225007 54 283 3.5 5.2 0.00 0.28 0.28 44 1014.1
20260506224503 54 283 0.9 1.7 0.00 0.28 0.28 45 1014.2
20260506223955 54 282 3.5 6.1 0.00 0.28 0.28 44 1013.8
20260506223451 54 305 2.6 6.1 0.00 0.28 0.28 44 1014.1
20260506222948 54 301 0.9 1.7 0.00 0.28 0.28 45 1013.9
20260506222444 54 298 0.9 2.6 0.00 0.28 0.28 44 1014.0
20260506221941 54 307 4.3 6.1 0.00 0.28 0.28 44 1013.8
20260506221438 54 317 2.6 5.2 0.00 0.28 0.28 44 1013.9
20260506220935 53 285 2.6 3.5 0.00 0.28 0.28 44 1013.8
20260506220426 54 296 2.6 3.5 0.00 0.28 0.28 43 1013.9
20260506215922 54 277 3.5 3.5 0.00 0.28 0.28 46 1014.0
20260506215418 54 290 3.5 5.2 0.00 0.28 0.28 46 1013.8
20260506214914 54 335 1.7 3.5 0.00 0.28 0.28 45 1013.9
20260506214412 54 292 3.5 5.2 0.00 0.28 0.28 45 1013.9
20260506213909 54 313 3.5 5.2 0.00 0.28 0.28 45 1013.9
20260506213407 54 309 1.7 2.6 0.00 0.28 0.28 45 1013.7
20260506212904 54 302 2.6 5.2 0.00 0.28 0.28 44 1013.6
20260506212400 54 310 0.9 1.7 0.00 0.28 0.28 45 1013.5
20260506211854 54 351 2.6 3.5 0.00 0.28 0.28 45 1013.6
20260506211350 54 342 2.6 7.8 0.00 0.28 0.28 43 1013.6
20260506210848 54 291 2.6 3.5 0.00 0.28 0.28 44 1013.5
20260506210344 54 303 2.6 3.5 0.00 0.28 0.28 45 1013.4
20260506205842 54 0 2.6 7.0 0.00 0.28 0.28 44 1013.5
20260506205337 55 337 3.5 7.8 0.00 0.28 0.28 43 1013.5
20260506204834 55 302 0.9 3.5 0.00 0.28 0.28 46 1013.3
20260506204331 55 344 4.3 6.1 0.00 0.28 0.28 44 1013.4
20260506203829 55 308 3.5 6.1 0.00 0.28 0.28 44 1013.4
20260506203326 54 285 0.9 2.6 0.00 0.28 0.28 46 1013.2
20260506202823 55 308 3.5 6.1 0.00 0.28 0.28 44 1013.2
20260506202320 55 317 3.5 6.1 0.00 0.28 0.28 43 1013.3
20260506201816 55 258 1.7 5.2 0.00 0.28 0.28 44 1013.4
20260506201314 55 24 3.5 3.5 0.00 0.28 0.28 44 1013.4
20260506200811 55 298 4.3 6.1 0.00 0.28 0.28 42 1013.5
20260506200307 55 281 2.6 6.1 0.00 0.28 0.28 43 1013.4
20260506195803 55 320 4.3 6.1 0.00 0.28 0.28 42 1013.3
20260506195300 55 298 7.0 9.6 0.00 0.28 0.28 42 1013.4
20260506194757 56 287 2.6 7.8 0.00 0.28 0.28 42 1013.3
20260506194253 56 268 2.6 3.5 0.00 0.28 0.28 43 1013.1
20260506193751 57 320 3.5 7.8 0.00 0.28 0.28 43 1013.1
20260506193248 57 258 5.2 8.7 0.00 0.28 0.28 43 1013.2
20260506192744 57 9 2.6 5.2 0.00 0.28 0.28 42 1013.1
20260506192241 57 298 3.5 5.2 0.00 0.28 0.28 41 1013.4
20260506191738 57 297 5.2 8.7 0.00 0.28 0.28 41 1013.4
20260506191234 58 295 5.2 7.0 0.00 0.28 0.28 43 1013.1
20260506190731 57 2 4.3 7.8 0.00 0.28 0.28 44 1013.5
20260506190228 56 306 3.5 3.5 0.00 0.28 0.28 43 1013.3
20260506185725 56 166 0.9 0.9 0.00 0.28 0.28 45 1013.3
20260506185221 56 330 2.6 3.5 0.00 0.28 0.28 43 1013.6
20260506184719 56 343 2.6 5.2 0.00 0.28 0.28 43 1013.6
20260506184216 56 298 4.3 6.1 0.00 0.28 0.28 42 1013.6
20260506183713 56 297 2.6 8.7 0.00 0.28 0.28 42 1013.5
20260506183208 56 13 3.5 5.2 0.00 0.28 0.28 45 1013.0
20260506182706 56 321 2.6 6.1 0.00 0.28 0.28 45 1013.2
20260506182203 56 285 4.3 5.2 0.00 0.28 0.28 43 1013.3
20260506181701 56 262 1.7 3.5 0.00 0.28 0.28 45 1013.3
20260506181158 55 272 1.7 3.5 0.00 0.28 0.28 44 1013.5
20260506180655 55 304 3.5 6.1 0.00 0.28 0.28 45 1013.2
20260506180151 56 326 0.9 5.2 0.00 0.28 0.28 46 1013.2
20260506175647 56 268 3.5 7.0 0.00 0.28 0.28 44 1013.3
20260506175145 57 281 3.5 5.2 0.00 0.28 0.28 45 1013.4
20260506174638 56 289 1.7 1.7 0.00 0.28 0.28 47 1013.5
20260506174134 56 353 5.2 7.8 0.00 0.28 0.28 47 1013.6
20260506173631 55 42 0.0 5.2 0.00 0.28 0.28 49 1013.6
20260506173129 56 280 3.5 5.2 0.00 0.28 0.28 46 1013.6
20260506172625 56 354 1.7 3.5 0.00 0.28 0.28 45 1013.5
20260506172116 56 338 1.7 5.2 0.00 0.28 0.28 47 1013.5
20260506171613 56 296 1.7 7.0 0.00 0.28 0.28 47 1013.5
20260506171110 56 338 3.5 6.1 0.00 0.28 0.28 47 1013.6
20260506170607 56 298 1.7 6.1 0.00 0.28 0.28 48 1013.5
20260506170105 56 22 0.9 3.5 0.00 0.28 0.28 49 1013.6
20260506165603 56 312 1.7 7.8 0.00 0.28 0.28 45 1013.7
20260506165054 56 313 3.5 5.2 0.00 0.28 0.28 46 1013.6
20260506164551 56 327 1.7 5.2 0.00 0.28 0.28 47 1013.4
20260506164048 55 2 1.7 5.2 0.00 0.28 0.28 47 1013.4
20260506163543 56 314 3.5 5.2 0.00 0.28 0.28 47 1013.5
20260506163039 57 309 3.5 5.2 0.00 0.28 0.28 46 1013.6
20260506162536 55 304 3.5 5.2 0.00 0.28 0.28 48 1013.6
20260506162033 56 327 1.7 6.1 0.00 0.28 0.28 46 1013.8
20260506161530 56 290 4.3 5.2 0.00 0.28 0.28 46 1013.4
20260506161021 56 282 1.7 3.5 0.00 0.28 0.28 46 1013.5
20260506160519 56 131 1.7 2.6 0.00 0.28 0.28 47 1013.5
20260506160016 56 353 1.7 5.2 0.00 0.28 0.28 49 1013.5
20260506155515 55 332 3.5 8.7 0.00 0.28 0.28 50 1013.5
20260506153646 54 288 5.2 7.0 0.00 0.28 0.28 50 1013.3
20260506153144 54 309 2.6 7.8 0.00 0.28 0.28 50 1013.3
20260506152640 54 4 0.9 5.2 0.00 0.28 0.28 52 1013.0
20260506152138 54 37 2.6 7.0 0.00 0.28 0.28 53 1013.1
20260506151636 53 357 1.7 7.0 0.00 0.28 0.28 52 1013.1
20260506151133 54 10 2.6 6.1 0.00 0.28 0.28 55 1013.1
20260506150630 53 317 1.7 6.1 0.00 0.28 0.28 54 1013.1
20260506150127 53 308 3.5 5.2 0.00 0.28 0.28 56 1013.1
20260506145624 53 297 0.9 3.5 0.00 0.28 0.28 58 1012.9
20260506145120 52 307 3.5 6.1 0.00 0.28 0.28 56 1013.2
20260506144618 52 2 2.6 7.0 0.00 0.28 0.28 59 1012.9
20260506144114 53 329 3.5 7.0 0.00 0.28 0.28 60 1012.9
20260506143612 52 316 3.5 6.1 0.00 0.28 0.28 63 1012.6
20260506143110 52 329 3.5 3.5 0.00 0.28 0.28 64 1012.6
20260506142608 52 287 1.7 6.1 0.00 0.28 0.28 63 1012.5
20260506142106 51 325 1.7 5.2 0.00 0.28 0.28 67 1012.4
20260506141603 51 20 4.3 7.8 0.00 0.28 0.28 67 1012.2
20260506141102 51 6 1.7 2.6 0.00 0.28 0.28 69 1012.2
20260506140559 50 313 2.6 3.5 0.00 0.28 0.28 71 1012.4
20260506140056 51 334 2.6 8.7 0.00 0.28 0.28 69 1012.2
20260506135553 50 17 3.5 5.2 0.00 0.28 0.28 71 1012.4
20260506135049 51 309 4.3 7.0 0.00 0.28 0.28 71 1012.3
20260506134546 50 348 3.5 3.5 0.00 0.28 0.28 72 1012.4
20260506134041 49 301 3.5 5.2 0.00 0.28 0.28 75 1012.3
20260506133539 49 319 2.6 6.1 0.00 0.28 0.28 74 1012.3
20260506133036 49 310 0.9 2.6 0.00 0.28 0.28 76 1012.4
20260506132533 49 34 0.9 6.1 0.00 0.28 0.28 78 1012.4
20260506132030 49 331 1.7 3.5 0.00 0.28 0.28 78 1012.4
20260506131527 48 295 1.7 6.1 0.00 0.28 0.28 80 1012.4
20260506131023 48 307 1.7 2.6 0.00 0.28 0.28 82 1012.3
20260506130520 48 335 2.6 3.5 0.00 0.28 0.28 82 1012.1
20260506130018 47 356 3.5 5.2 0.00 0.28 0.28 83 1011.9
20260506125516 47 321 1.7 3.5 0.00 0.28 0.28 84 1011.8
20260506125013 47 294 2.6 2.6 0.00 0.28 0.28 84 1011.6
20260506124511 47 295 3.5 5.2 0.00 0.28 0.28 86 1011.7
20260506124009 47 293 1.7 2.6 0.00 0.28 0.28 88 1011.6
20260506123507 46 293 0.0 1.7 0.00 0.28 0.28 90 1011.9
20260506123004 46 283 1.7 2.6 0.00 0.28 0.28 90 1011.6
20260506122501 46 293 1.7 3.5 0.00 0.28 0.28 90 1011.8
20260506121959 45 295 2.6 5.2 0.00 0.28 0.28 91 1011.7
20260506121456 45 290 1.7 2.6 0.00 0.28 0.28 91 1011.7
20260506120952 45 298 1.7 2.6 0.00 0.28 0.28 92 1011.4
20260506120450 45 286 2.6 3.5 0.00 0.28 0.28 93 1011.6
20260506115947 45 320 0.9 2.6 0.00 0.28 0.28 94 1011.3
20260506115445 44 297 1.7 3.5 0.00 0.28 0.28 95 1011.0
20260506114943 44 299 0.9 0.9 0.00 0.28 0.28 95 1010.9
20260506114440 44 327 0.9 2.6 0.00 0.28 0.28 95 1011.1
20260506113939 44 293 0.0 0.9 0.00 0.28 0.28 95 1011.1
20260506113437 44 304 0.9 0.9 0.00 0.28 0.28 96 1010.7
20260506112933 44 322 0.0 0.9 0.00 0.28 0.28 96 1010.7
20260506112431 44 317 0.0 0.0 0.00 0.28 0.28 96 1010.8
20260506111927 44 290 1.7 1.7 0.00 0.28 0.28 96 1010.7
20260506111426 44 315 0.9 0.9 0.00 0.28 0.28 96 1010.4
20260506110922 44 317 0.9 1.7 0.00 0.28 0.28 96 1010.7
20260506110420 44 301 0.9 0.9 0.00 0.28 0.28 96 1010.7
20260506105916 44 238 0.0 0.0 0.00 0.28 0.28 96 1010.8
20260506105413 44 232 0.0 0.0 0.00 0.28 0.28 96 1010.9
20260506104910 44 240 0.0 0.9 0.00 0.28 0.28 96 1010.8
20260506104408 44 278 0.0 0.9 0.00 0.28 0.28 96 1010.4
20260506103906 44 298 1.7 1.7 0.00 0.28 0.28 96 1010.3
20260506103403 44 302 0.0 1.7 0.00 0.28 0.28 96 1010.3
20260506102900 44 302 0.9 1.7 0.00 0.28 0.28 96 1010.4
20260506102358 44 300 1.7 2.6 0.00 0.28 0.28 96 1010.4
20260506101854 44 299 0.9 1.7 0.00 0.28 0.28 96 1010.2
20260506101350 44 291 0.9 2.6 0.00 0.28 0.28 96 1009.9
20260506100848 44 297 0.0 0.9 0.00 0.28 0.28 96 1009.5
20260506100347 44 307 0.9 1.7 0.00 0.28 0.28 97 1009.4
20260506095844 44 64 0.0 0.0 0.00 0.28 0.28 96 1009.3
20260506095342 44 64 0.0 0.0 0.00 0.28 0.28 96 1009.3
20260506094838 44 64 0.0 0.0 0.00 0.28 0.28 96 1009.5
20260506094337 44 64 0.0 0.0 0.00 0.28 0.28 96 1009.8
20260506093835 44 64 0.0 0.0 0.00 0.28 0.28 96 1009.5
20260506093331 44 64 0.0 0.0 0.00 0.28 0.28 96 1009.1
20260506092829 44 64 0.0 0.0 0.00 0.28 0.28 96 1009.6
20260506092327 44 64 0.0 0.0 0.00 0.28 0.28 96 1009.6
20260506091819 44 64 0.0 0.0 0.00 0.28 0.28 96 1009.6
20260506091316 44 64 0.0 0.0 0.00 0.28 0.28 96 1009.8
20260506090814 44 328 0.0 1.7 0.00 0.28 0.28 96 1009.9
20260506090311 44 305 0.9 2.6 0.00 0.28 0.28 96 1009.9
20260506085807 44 310 0.9 1.7 0.00 0.28 0.28 96 1010.0
20260506085306 44 287 0.9 2.6 0.00 0.28 0.28 96 1010.0
20260506084800 44 290 0.0 0.0 0.00 0.28 0.28 96 1009.5
20260506084257 44 310 0.0 0.0 0.05 0.28 0.28 96 1009.5
20260506083754 44 309 0.0 0.0 0.05 0.28 0.28 96 1009.4
20260506083252 44 323 0.0 0.0 0.00 0.27 0.27 96 1009.6
20260506082749 44 329 0.0 0.9 0.07 0.27 0.27 96 1009.6
20260506082249 44 315 0.0 0.0 0.07 0.27 0.27 96 1010.0
20260506081747 44 304 0.0 0.9 0.00 0.26 0.26 96 1009.9
20260506081244 44 1 0.0 0.0 0.00 0.26 0.26 96 1009.7
20260506080742 44 310 0.0 0.0 0.00 0.26 0.26 96 1009.8
20260506080238 44 328 0.0 0.9 0.00 0.26 0.26 96 1009.9
20260506073222 45 345 1.7 1.7 0.05 0.26 0.26 96 1009.3
20260506072719 44 334 0.0 0.0 0.00 0.25 0.25 97 1009.5
20260506072217 44 352 0.0 0.9 0.00 0.25 0.25 97 1009.5
20260506071714 44 358 0.9 1.7 0.07 0.25 0.25 97 1009.2
20260506071213 45 344 0.9 1.7 0.07 0.25 0.25 97 1009.6
20260506070709 45 298 0.9 1.7 0.00 0.24 0.24 97 1009.9
20260506070206 45 296 0.9 1.7 0.05 0.24 0.24 97 1010.2
20260506062143 45 307 0.0 0.0 0.12 0.20 0.20 97 1009.6
20260506061639 45 328 1.7 2.6 0.12 0.19 0.19 97 1009.6
20260506061136 46 324 1.7 2.6 0.12 0.18 0.18 97 1009.7
20260506060635 46 311 1.7 1.7 0.05 0.17 0.17 97 1009.8
20260506060131 46 325 1.7 3.5 0.07 0.16 0.16 97 1010.1
20260506051103 46 337 0.0 0.0 0.12 0.07 0.07 97 1009.9
20260506050601 46 326 0.0 0.9 0.05 0.06 0.06 97 1009.8
20260506045052 46 335 0.0 0.9 0.00 0.04 0.04 97 1009.5
20260506044550 46 317 0.0 0.0 0.05 0.04 0.04 97 1009.5
20260506044046 46 316 0.9 0.9 0.05 0.04 0.04 97 1009.8
20260506043543 46 315 0.0 0.0 0.00 0.03 0.03 97 1009.6
20260506043042 46 352 0.0 0.9 0.00 0.03 0.03 97 1009.5
20260506042540 46 308 0.0 0.0 0.07 0.03 0.03 97 1009.7
20260506042038 46 309 0.0 0.0 0.07 0.03 0.03 97 1009.7
20260506041536 46 308 0.0 0.9 0.05 0.02 0.02 97 1009.8
20260506041033 46 305 0.0 0.9 0.12 0.02 0.02 97 1009.7
20260506040531 46 339 0.0 1.7 0.07 0.01 0.01 97 1009.9
20260506040026 46 333 0.0 0.0 0.05 0.00 0.00 97 1009.9
20260506035524 47 323 0.0 0.0 0.12 1.08 1.08 97 1009.9
20260506035020 47 308 0.0 0.0 0.07 1.07 1.07 97 1010.0
20260506034518 47 306 1.7 1.7 0.05 1.06 1.06 97 1010.0
20260506034015 47 299 0.9 0.9 0.07 1.05 1.05 97 1009.9
20260506033512 47 322 0.0 0.9 0.14 1.05 1.05 97 1009.9
20260506033009 47 21 0.0 0.0 0.12 1.04 1.04 97 1009.8
20260506032506 47 348 0.0 0.0 0.07 1.02 1.02 97 1009.6
20260506032002 47 14 0.0 0.0 0.12 1.02 1.02 97 1009.6
20260506031500 47 332 0.9 1.7 0.12 1.01 1.01 97 1009.7
20260506030957 47 345 0.0 0.9 0.12 1.00 1.00 97 1009.9
20260506030455 47 338 0.9 0.9 0.12 0.99 0.99 97 1009.9
20260506025952 47 306 0.9 0.9 0.07 0.98 0.98 97 1010.0
20260506025449 47 48 0.9 1.7 0.05 0.97 0.97 97 1009.8
20260506024945 47 83 0.0 0.0 0.12 0.96 0.96 97 1010.1
20260506024442 47 111 0.0 0.0 0.12 0.95 0.95 97 1010.0
20260506023938 47 121 0.0 0.0 0.12 0.94 0.94 97 1010.0
20260506023435 47 121 0.0 0.0 0.19 0.93 0.93 97 1010.0
20260506022932 47 152 0.0 0.0 0.12 0.91 0.91 97 1010.2
20260506022429 47 128 0.0 0.0 0.17 0.90 0.90 97 1010.1
20260506021927 48 234 0.0 0.0 0.19 0.89 0.89 97 1010.1
20260506021424 48 272 0.0 0.0 0.19 0.87 0.87 97 1010.3
20260506020921 48 255 0.0 0.0 0.17 0.86 0.86 97 1010.0
20260506020419 48 213 0.0 0.0 0.12 0.84 0.84 97 1010.0
20260506015916 48 164 0.0 0.0 0.12 0.83 0.83 97 1010.1
20260506015414 47 302 0.9 1.7 0.12 0.82 0.82 97 1010.1
20260506014910 48 285 0.0 0.9 0.12 0.81 0.81 97 1009.9
20260506014407 48 289 0.9 1.7 0.19 0.80 0.80 97 1010.0
20260506013904 48 282 0.9 1.7 0.12 0.78 0.78 97 1010.1
20260506013402 48 301 0.0 0.0 0.05 0.77 0.77 97 1009.8
20260506012857 48 284 0.0 0.0 0.07 0.76 0.76 97 1009.8
20260506012354 48 26 0.0 0.0 0.12 0.76 0.76 97 1009.5
20260506011851 48 304 0.0 0.0 0.12 0.75 0.75 97 1009.5
20260506011348 48 353 0.0 0.0 0.12 0.74 0.74 97 1009.5
20260506010845 48 308 0.0 0.9 0.05 0.73 0.73 97 1009.4
20260506010344 48 302 1.7 1.7 0.07 0.72 0.72 96 1009.6
20260506005840 48 303 0.0 0.0 0.05 0.71 0.71 97 1009.6
20260506005337 48 319 0.0 0.0 0.05 0.71 0.71 97 1009.4
20260506004833 48 311 0.0 0.0 0.07 0.70 0.70 97 1009.4
20260506004331 48 338 0.0 0.0 0.12 0.70 0.70 97 1009.5
20260506003827 48 347 0.0 0.0 0.05 0.69 0.69 97 1009.4